Skip Page Navigation
NASA JPL Caltech
NASA Logo - Jet Propulsion Laboratory + View the NASA Portal
+ Center for Near-Earth Object Studies
JPL Home Earth Solar System Stars & Galaxies Technology
JPL Solar System Dynamics
BODIES ORBITS EPHEMERIDES TOOLS PHYSICAL DATA DISCOVERY FAQ SITE MAP
JPL Small-Body Database Browser
Search: [ help ]  
70247 (1999 RR82)
Classification: Main-belt Asteroid          SPK-ID: 2070247
Ephemeris | Orbit Diagram | Orbital Elements | Mission Design | Physical Parameters | Discovery Circumstances | Close-Approach Data ]

[ show orbit diagram ]
Orbital Elements at Epoch 2459000.5 (2020-May-31.0) TDB
Reference: JPL 13 (heliocentric ecliptic J2000)
 Element Value Uncertainty (1-sigma)   Units 
e .2589663428905428 7.4236e-08  
a 2.566820571462783 1.4848e-08 au
q 1.902100435214853 1.981e-07 au
i 6.29247989404911 6.0361e-06 deg
node 206.3164579693228 4.6149e-05 deg
peri 61.20519192316311 4.7482e-05 deg
M 69.50969887229962 9.3887e-06 deg
tp 2458710.475557910469
(2019-Aug-14.97555791)
3.8305e-05 TDB
period 1502.075262101865
4.11
1.3034e-05
3.569e-08
d
yr
n .2396684168117178 2.0796e-09 deg/d
Q 3.231540707710713 1.8694e-08 au
  Orbit Determination Parameters
   # obs. used (total)      532  
   data-arc span      10152 days (27.79 yr)  
   first obs. used      1991-10-13  
   last obs. used      2019-07-30  
   planetary ephem.      DE431  
   SB-pert. ephem.      SB431-N16  
   condition code      0  
   norm. resid. RMS      .49735  
   source      ORB  
   producer      Otto Matic  
   solution date      2020-Feb-23 16:06:55  

Additional Information
 Earth MOID = .896099 au 
 Jupiter MOID = 1.89469 au 
 T_jup = 3.376 
[ show covariance matrix ]

Ephemeris | Orbit Diagram | Orbital Elements | Mission Design | Physical Parameters | Discovery Circumstances | Close-Approach Data ]

Physical Parameter Table
Parameter Symbol Value Units Sigma Reference Notes
absolute magnitude H 15.9   n/a MPO432255  

70247 (1999 RR82)          Discovered 1999-Sep-07 by LINEAR at Socorro
Reference: 20031109/Numbers.arcLast Updated: 2004-04-19

[ show close-approach data ]
Alternate Designations
 1999 RR82 = 1995 UG40 
Ephemeris | Orbit Diagram | Orbital Elements | Mission Design | Physical Parameters | Discovery Circumstances | Close-Approach Data ]
ABOUT SSD CREDITS/AWARDS PRIVACY/COPYRIGHT GLOSSARY LINKS
FirstGov 2020-Sep-24 15:41 UT
(server date/time)  
NASA Home Page
Site Manager:   Ryan S. Park
Webmaster  Alan B. Chamberlin